CAPE
0 0 0 2 1 1 2 1 1 1 0 0 0 0 0 0 0 0 0 0 0 0 0 0 0 0 0 0 25 416 18 59 32 34 39 246 151 132 60 3 0 0 0 130 231
1 2 1 1 1 1 1 0 0 0 0 0 1 0 0 0 0 0 0 0 0 0 0 0 0 0 0 0 0 155 61 110 126 59 54 281 258 198 62 67 5 0 22 112 94
1 0 1 0 1 0 0 0 0 0 0 1 0 0 0 0 0 0 0 0 0 0 0 0 0 0 0 0 0 180 118 255 285 176 133 238 220 345 150 36 0 0 6 99 66
2 1 1 1 1 0 0 0 0 0 0 1 1 0 0 0 0 0 0 0 0 0 0 0 0 0 0 0 63 159 78 513 343 155 117 171 146 208 199 39 0 0 0 71 66
0 0 0 0 0 0 0 0 0 0 0 0 0 0 0 0 0 0 0 0 0 0 0 0 0 0 0 4 187 202 415 384 152 52 55 67 147 131 118 50 15 0 23 54 49
0 0 0 0 0 0 0 0 0 0 0 0 0 0 0 0 0 0 0 0 0 0 0 0 0 0 0 0 126 109 149 202 151 35 41 121 138 88 205 82 3 0 5 24 46
0 0 0 0 0 0 0 0 0 0 0 1 0 0 0 0 0 0 0 0 0 0 0 0 0 0 0 1 261 164 126 156 119 48 84 29 79 85 134 69 36 0 1 8 17
0 0 0 0 0 0 0 0 0 0 0 0 0 0 0 0 0 0 0 0 0 0 0 0 0 0 0 0 231 162 151 57 60 36 37 35 44 68 64 51 20 0 9 21 34
0 0 0 0 0 0 0 0 0 0 0 0 0 0 0 0 0 0 0 0 0 0 0 0 0 0 0 0 19 86 82 56 18 40 25 40 66 87 94 48 1 0 12 19 44
0 0 0 0 0 0 0 0 0 0 0 0 0 0 0 0 0 0 0 0 0 0 0 0 0 0 0 0 0 37 69 75 58 27 13 21 51 77 84 80 16 9 21 21 45
0 0 0 0 0 0 0 0 0 0 0 0 0 0 0 0 0 0 0 0 0 0 0 0 0 0 0 0 0 27 41 67 47 51 19 13 40 54 77 99 24 25 44 27 19
0 0 0 0 0 0 0 0 0 0 0 0 0 0 0 0 0 0 0 0 0 0 0 0 0 0 0 0 0 21 21 48 61 47 46 28 25 22 53 79 87 50 30 33 15
0 0 0 0 0 0 0 0 0 0 0 0 0 0 0 0 0 0 0 0 0 0 0 0 0 0 0 0 0 38 65 37 33 63 18 11 7 5 23 38 40 40 49 31 12
0 0 0 0 0 0 0 0 0 0 0 0 0 0 0 0 0 0 0 0 0 0 0 0 0 0 0 0 0 13 114 21 69 10 0 3 0 8 3 16 23 26 86 87 16
0 0 0 0 0 0 0 0 0 0 2 0 0 0 0 0 0 0 0 0 0 0 0 0 0 0 0 0 0 66 0 71 86 7 1 6 0 0 11 0 0 0 46 57 13
0 0 0 0 0 0 0 0 0 0 2 0 0 0 0 0 0 0 0 0 0 0 0 0 0 0 0 0 10 207 174 115 50 0 0 0 7 3 0 4 0 0 13 42 10
0 0 0 0 0 0 0 0 0 25 4 0 0 0 0 0 0 0 0 0 0 0 0 0 0 0 0 0 37 161 134 21 0 0 0 0 0 0 28 26 15 0 0 18 21
0 0 0 0 0 0 0 0 1 0 0 0 0 0 0 12 0 0 0 0 0 0 0 0 0 0 0 0 0 8 20 13 0 0 0 2 0 41 98 124 36 0 0 13 52
0 0 0 0 0 0 0 0 0 0 0 0 0 12 15 4 16 7 0 0 0 0 0 0 0 0 0 0 0 0 42 12 11 13 0 3 14 0 292 300 95 4 0 6 72
0 0 0 0 0 0 0 0 0 0 0 0 0 0 15 3 2 5 16 14 1 0 2 0 0 0 0 0 0 0 1 6 0 9 0 30 58 83 253 144 113 41 0 50 74
0 0 0 0 0 0 0 0 0 0 0 0 0 0 0 1 31 24 5 21 1 0 0 0 0 0 0 0 0 0 0 0 0 2 18 10 6 179 0 127 46 53 50 79 108
0 0 0 0 0 0 0 0 0 0 0 0 0 0 0 0 29 4 1 0 0 0 0 0 0 0 0 1 0 0 0 0 0 0 0 0 1 237 117 0 0 2 32 87 169
0 0 0 0 0 0 0 0 0 0 0 0 0 0 0 0 20 7 15 7 0 0 0 0 0 0 0 1 1 0 0 0 0 0 0 0 13 123 234 54 0 15 34 74 231
0 0 0 0 0 0 0 0 0 0 0 0 0 0 0 0 91 56 36 11 0 0 9 0 0 0 0 0 0 0 1 0 0 0 0 0 48 69 54 5 0 0 89 249 294
0 0 0 0 1 0 0 0 0 0 0 0 0 0 0 1 152 155 118 63 62 54 71 10 0 0 14 0 0 0 0 41 0 0 0 95 355 187 211 100 9 5 9 273 300
0 0 0 4 0 0 0 0 0 0 0 0 0 0 0 2 122 3 0 116 126 30 21 86 90 150 29 43 40 12 135 157 51 339 177 548 482 126 250 22 64 0 0 51 282
0 0 13 0 0 0 0 0 0 0 0 0 0 0 0 35 31 18 24 31 80 27 2 20 283 98 149 152 77 13 45 85 150 609 666 328 113 3 11 2 0 0 0 160 639
CIN
0 0 0 0 0 0 0 0 0 0 0 0 0 0 0 0 0 0 0 0 0 0 0 0 0 0 0 0 -15 -18 -16 -6 -16 -8 -33 -32 -40 -16 -11 -38 0 0 0 -38 -41
0 0 0 0 0 0 0 0 0 0 0 0 0 0 0 0 0 0 0 0 0 0 0 0 0 0 0 0 0 -13 -11 -6 -43 -45 -39 -15 -21 -69 -38 -27 -33 0 -17 -27 -45
0 0 0 0 0 0 0 0 0 0 0 0 0 0 0 0 0 0 0 0 0 0 0 0 0 0 0 0 0 -21 -7 -12 -29 -28 -23 -23 -19 -27 -16 -29 -3 0 -3 -27 -28
0 0 0 0 0 0 0 0 0 0 0 0 0 0 0 0 0 0 0 0 0 0 0 0 0 0 0 0 -16 -10 -50 -35 -40 -60 -45 -20 -16 -40 -26 -35 0 0 0 -21 -38
0 0 0 0 0 0 0 0 0 0 0 0 0 0 0 0 0 0 0 0 0 0 0 0 0 0 0 -3 -36 -39 -14 -32 -62 -55 -41 -33 -13 -34 -35 -14 -34 0 -3 -13 -28
0 0 0 0 0 0 0 0 0 0 0 0 0 0 0 0 0 0 0 0 0 0 0 0 0 0 0 0 -17 -80 -86 -10 -11 -25 -30 -4 -31 -41 -33 -7 -12 0 -3 -7 -8
0 0 0 0 0 0 0 0 0 0 0 0 0 0 0 0 0 0 0 0 0 0 0 0 0 0 0 -10 -65 -97 -57 -28 -37 -58 -26 -46 -11 -22 -14 -24 -11 0 -1 -5 -5
0 0 0 0 0 0 0 0 0 0 0 0 0 0 0 0 0 0 0 0 0 0 0 0 0 0 0 0 -28 -17 -26 -34 -84 -110 -76 -54 -29 -27 -12 -12 -16 0 -6 -4 -5
0 0 0 0 0 0 0 0 0 0 0 0 0 0 0 0 0 0 0 0 0 0 0 0 0 0 0 0 -15 -32 -13 -50 -89 -90 -83 -51 -26 -29 -32 -7 -3 0 -5 -8 -9
0 0 0 0 0 0 0 0 0 0 0 0 0 0 0 0 0 0 0 0 0 0 0 0 0 0 0 0 0 -27 -14 -21 -34 -70 -61 -31 -26 -51 -31 -8 -10 -5 -7 -10 -14
0 0 0 0 0 0 0 0 0 0 0 0 0 0 0 0 0 0 0 0 0 0 0 0 0 0 0 0 0 -13 -30 -37 -39 -34 -9 -32 -30 -45 -55 -32 -7 -5 -8 -11 -14
0 0 0 0 0 0 0 0 0 0 0 0 0 0 0 0 0 0 0 0 0 0 0 0 0 0 0 0 0 -28 -44 -13 -44 -53 -14 -37 -20 -48 -70 -64 -45 -8 -10 -11 -18
0 0 0 0 0 0 0 0 0 0 0 0 0 0 0 0 0 0 0 0 0 0 0 0 0 0 0 0 0 -69 -28 -18 -75 -23 -22 -39 -25 -42 -67 -73 -89 -67 -12 -16 -30
0 0 0 0 0 0 0 0 0 0 0 0 0 0 0 0 0 0 0 0 0 0 0 0 0 0 0 0 0 -20 -98 -35 -58 -93 0 -28 -4 -17 -49 -53 -72 -63 -21 -29 -33
0 0 0 0 0 0 0 0 0 0 -16 0 0 0 0 0 0 0 0 0 0 0 0 0 0 0 0 0 0 -86 0 -28 -59 -35 -32 -23 -3 -28 -36 0 0 0 -42 -36 -22
0 0 0 0 0 0 0 0 0 0 -11 0 0 0 0 0 0 0 0 0 0 0 0 0 0 0 0 0 -7 -58 -52 -36 -56 -5 0 0 -14 -11 0 -301 0 0 -92 -58 -52
0 0 0 0 0 0 0 0 0 -47 -2 0 -1 0 0 0 0 0 0 0 0 0 0 0 0 0 0 0 -29 -41 -21 -19 -7 0 0 0 0 0 -114 -185 -203 0 -13 -51 -45
0 0 0 0 0 0 0 0 -7 -1 0 0 0 0 0 -8 0 0 0 0 0 0 0 0 0 0 0 0 0 -6 -33 -15 0 0 -1 -39 0 -80 -83 -104 -164 0 0 -33 -61
0 0 0 0 0 0 0 0 0 0 0 0 0 -3 -13 -12 -3 -16 0 0 0 0 0 -3 0 0 0 0 0 0 -13 -31 -59 -82 0 -15 -77 0 -85 -146 -184 -25 -3 -37 -58
0 0 0 0 0 0 0 0 0 0 0 0 0 0 -2 -13 -11 -13 -23 -28 -16 0 -25 0 0 0 0 0 0 0 -1 -4 0 -3 0 -11 -17 -16 -65 -76 -109 -138 -79 -58 -54
0 0 0 0 0 0 0 0 0 0 0 0 0 0 0 -6 -41 -70 -60 -28 -16 0 0 0 -9 0 0 0 0 0 0 0 0 -6 -9 -11 -40 -94 0 -70 -120 -68 -53 -71 -55
0 0 0 0 0 0 0 0 0 0 0 0 0 0 0 0 -25 -23 -3 -5 0 0 0 -2 0 0 0 -4 0 0 0 0 0 0 0 0 -22 -146 -158 0 0 -4 -104 -94 -48
0 0 0 0 0 0 0 0 0 0 0 0 0 0 0 0 -33 -51 -60 -42 0 0 0 0 0 0 0 -12 -3 0 0 0 0 0 0 0 -9 -281 -212 -303 0 -227 -233 -142 -29
0 0 0 0 0 0 0 0 0 0 0 0 0 0 0 -1 -31 -47 -16 -42 -49 0 -128 0 0 0 -1 0 0 0 -10 0 0 0 0 0 -94 -207 -277 -221 0 0 -174 -115 -74
0 0 0 -1 -10 0 0 0 0 0 0 0 0 0 0 -3 -15 -28 -26 -37 -68 -71 -82 -78 0 0 -34 -80 -27 0 -4 -18 0 0 0 -20 -35 -165 -213 -246 -111 -107 -143 -120 -123
0 0 0 -31 0 0 0 0 0 0 0 0 0 0 0 -6 -37 -28 -2 -48 -46 -65 -88 -57 -29 -32 -43 -65 -37 -39 -20 -59 -39 -78 -44 -53 -115 -298 -213 -339 -194 -20 0 -63 -163
0 0 -86 0 0 0 0 0 0 0 0 0 0 0 0 -53 -67 -79 -70 -44 -22 -48 -73 -47 -18 -36 -13 -38 -58 -34 -80 -82 -139 -137 -117 -56 -245 -353 -234 -103 0 0 0 -73 -82
Wind_Speed
14 11 10 10 9 6 5 7 9 14 16 24 25 26 26 27 27 21 21 10 10 18 15 19 15 24 24 24 11 16 19 16 16 21 10 10 15 20 14 22 21 17 24 28 28
20 16 14 12 9 8 6 6 12 14 18 24 25 26 26 26 24 25 23 24 17 8 14 15 3 9 25 22 18 16 19 18 16 17 11 18 15 8 11 14 19 23 26 28 27
23 19 16 14 12 12 10 7 6 15 24 26 26 26 25 25 17 12 15 27 14 16 21 25 28 4 11 26 16 15 17 19 14 13 18 15 14 6 13 10 22 23 26 27 24
24 20 18 18 17 15 14 11 11 24 25 25 25 25 25 17 10 15 14 2 11 15 20 19 23 24 22 24 7 14 20 15 14 11 5 4 8 6 9 16 19 20 25 26 23
23 20 20 21 19 16 15 15 18 21 23 24 24 23 19 13 14 12 12 12 15 17 19 17 23 23 21 14 7 13 16 13 12 11 10 6 4 4 22 13 14 19 22 25 22
22 22 21 21 18 17 15 15 17 19 22 23 22 22 16 9 10 7 10 15 18 17 22 24 21 22 25 25 17 12 12 10 10 10 9 7 4 11 11 13 15 15 16 19 26
23 23 21 20 19 16 15 16 17 18 19 20 19 18 15 9 18 10 8 16 18 17 23 30 32 28 23 20 5 7 9 9 11 10 8 11 3 15 4 10 12 11 20 12 18
22 21 20 20 17 15 15 16 17 17 17 18 18 17 15 14 26 26 24 13 19 20 31 31 30 29 25 20 9 9 5 8 12 11 12 10 2 17 15 13 12 14 28 18 15
22 20 21 20 17 14 13 14 14 15 16 16 17 16 17 15 22 22 24 18 19 24 30 30 27 27 26 26 18 19 21 10 13 16 14 15 14 23 18 13 11 21 31 17 12
22 19 20 19 16 15 12 10 15 17 16 13 13 18 18 15 12 13 19 22 19 22 28 28 21 24 29 30 29 25 27 17 13 14 14 17 21 25 19 13 9 27 25 12 10
18 18 17 16 14 16 19 18 20 19 16 15 13 16 22 14 14 15 15 20 19 23 27 23 24 29 32 31 33 16 16 13 8 10 8 18 24 29 24 20 18 35 22 16 15
18 17 16 14 10 12 14 16 14 20 18 9 7 7 20 19 13 18 10 18 22 25 26 26 34 32 33 32 32 19 18 10 11 9 16 14 30 31 30 28 27 35 33 22 15
18 17 14 4 4 11 13 11 10 5 14 12 13 12 12 19 18 10 15 22 20 27 29 32 30 32 34 33 31 17 21 15 14 7 12 9 33 36 36 35 33 32 32 32 21
22 18 9 13 15 14 12 8 9 10 17 17 17 17 16 14 18 4 24 20 18 26 30 31 32 31 29 32 31 26 23 6 7 9 19 22 18 35 44 43 39 37 33 31 17
20 2 7 13 9 15 11 5 7 10 21 19 21 17 16 12 9 5 20 25 28 25 24 31 29 30 30 31 33 24 18 21 5 12 10 21 17 24 40 45 47 45 29 27 13
19 12 13 15 14 12 8 7 5 17 21 19 17 16 16 17 17 7 12 25 26 26 27 32 30 29 27 27 22 12 10 4 8 15 21 23 22 24 32 38 48 47 22 30 16
17 12 9 11 14 14 13 10 17 19 18 23 19 14 10 10 8 12 14 22 24 21 24 27 31 29 32 27 13 11 10 18 18 20 24 23 16 24 19 35 40 41 21 25 17
21 15 10 11 14 16 9 14 18 25 24 19 14 9 15 15 6 14 11 22 29 30 29 27 30 29 25 28 29 23 21 29 20 19 20 9 17 25 28 30 31 40 17 33 20
20 14 11 12 17 15 14 16 18 24 25 12 8 20 18 18 14 18 16 17 24 28 28 22 29 26 28 29 33 32 31 31 20 17 21 24 19 21 20 3 10 36 32 44 28
15 13 8 16 15 13 12 11 16 21 22 8 23 21 20 15 18 18 17 15 17 21 21 29 28 27 24 27 32 31 27 31 33 29 25 17 19 21 20 13 10 16 28 39 40
13 12 11 14 15 10 9 10 19 21 22 18 21 22 24 20 18 18 20 23 20 22 21 22 24 30 27 24 26 33 32 30 30 31 33 25 26 13 11 6 15 24 34 44 42
14 12 11 11 8 8 3 8 16 19 19 18 14 14 22 24 17 19 20 23 22 25 21 21 22 27 28 26 21 26 32 32 32 34 31 29 28 11 4 10 17 39 40 41 43
14 7 14 10 8 6 11 10 12 16 21 20 20 23 22 21 19 17 19 20 23 22 19 22 21 24 25 22 19 25 31 32 33 33 35 32 27 8 11 6 12 31 41 41 14
13 14 11 9 8 5 14 12 13 13 18 19 18 18 23 22 21 13 21 16 21 23 25 24 25 25 24 29 30 27 26 32 35 37 35 32 19 14 10 9 19 25 36 35 13
10 11 21 11 15 16 16 15 13 15 18 16 18 22 22 23 19 19 20 23 23 23 24 25 32 29 26 27 28 27 27 28 37 38 36 25 17 12 11 8 9 11 14 37 10
8 19 25 11 12 12 9 9 11 15 18 20 22 25 24 21 18 21 23 23 24 26 25 24 25 24 28 24 24 23 22 25 23 23 22 15 18 17 16 15 16 17 27 27 11
16 17 17 13 15 11 10 12 14 16 15 13 18 19 19 19 21 22 14 18 25 21 21 21 19 22 27 25 24 20 20 17 14 17 17 21 17 16 15 16 19 20 29 19 8
Wind_Direction
56 63 68 69 72 100 155 189 200 228 235 281 294 293 288 285 277 289 284 251 291 172 294 266 274 223 220 232 244 322 325 279 94 127 82 346 70 146 51 93 99 76 99 106 105
41 50 53 59 71 81 113 181 227 231 245 275 290 300 294 290 290 282 234 213 279 299 287 273 54 178 210 243 270 292 309 333 121 113 98 102 79 59 65 71 84 96 98 110 108
30 43 54 60 63 64 69 87 177 240 287 296 296 301 300 295 318 312 285 187 275 273 263 242 229 280 300 216 282 302 302 318 17 86 119 103 110 321 87 73 113 105 114 115 108
26 39 46 47 50 54 57 65 56 336 316 315 311 306 300 311 331 303 298 279 273 273 257 259 252 249 265 255 307 298 301 334 14 38 21 53 58 326 275 112 110 104 119 124 112
30 38 38 34 38 46 49 48 32 10 347 330 322 317 315 324 303 306 300 278 267 262 252 253 247 245 254 306 330 312 301 357 15 6 41 90 20 322 198 104 100 107 117 127 117
29 27 31 29 35 39 42 38 27 15 2 345 334 325 330 331 329 333 300 275 260 252 243 240 247 250 252 268 284 301 357 341 7 353 9 60 87 247 239 103 110 109 110 113 122
23 24 28 29 30 36 37 32 28 19 9 1 350 339 329 308 298 320 303 282 252 249 239 228 223 242 259 277 6 77 38 30 305 333 317 282 291 229 189 125 114 110 121 99 109
28 28 29 27 32 36 37 32 28 23 21 12 1 350 338 317 270 272 263 277 251 247 229 231 236 248 260 267 314 290 319 354 287 305 275 267 255 221 243 125 114 119 143 119 110
21 30 28 27 33 37 39 34 34 36 34 29 17 14 341 322 293 270 251 257 248 239 233 235 242 246 254 245 266 256 265 305 285 285 272 262 243 225 236 193 121 133 155 122 114
22 32 27 30 36 36 41 47 41 33 38 43 29 8 350 338 322 273 258 246 245 240 237 240 248 249 242 237 241 261 253 277 299 285 301 259 233 221 226 215 135 147 145 124 119
30 30 32 35 39 35 29 42 39 39 36 34 30 14 319 349 315 275 262 248 242 242 237 241 242 238 233 237 236 289 295 282 302 350 9 240 230 219 226 229 141 174 142 136 131
31 32 36 42 58 58 60 50 61 31 28 53 127 68 268 309 304 255 264 246 237 236 236 239 233 236 232 240 235 273 277 265 281 58 278 274 228 228 227 227 225 202 166 148 138
28 32 40 93 175 84 82 88 88 96 43 60 109 105 71 259 250 275 254 233 240 236 235 233 235 228 233 240 241 258 258 260 279 311 314 287 233 224 226 228 230 228 222 174 151
17 29 252 261 70 84 86 109 93 80 56 61 63 52 53 205 253 357 226 237 247 240 237 240 239 241 239 240 242 255 275 255 250 278 255 233 260 235 223 222 227 224 227 228 159
21 89 213 60 125 87 111 205 107 93 53 71 46 80 80 105 3 348 243 237 240 244 246 239 242 243 250 242 235 253 257 203 230 283 301 233 254 234 215 216 213 210 236 230 180
280 251 246 65 98 156 215 221 144 66 50 58 73 90 70 172 255 5 285 241 250 256 255 244 252 250 250 244 258 238 55 4 271 287 261 250 247 233 200 194 206 209 234 232 216
269 238 94 106 97 255 258 99 63 57 70 25 60 85 106 28 32 329 285 251 245 251 250 250 247 252 246 246 249 247 255 256 263 272 253 258 270 220 223 219 195 187 223 232 220
275 241 112 137 168 228 192 80 66 9 355 311 300 115 54 44 354 313 315 254 237 243 253 249 246 253 256 248 247 247 259 248 265 268 272 321 282 266 259 212 187 187 219 201 213
274 48 88 140 158 152 82 63 54 341 6 81 229 24 7 344 338 284 285 276 250 242 247 262 257 265 256 254 244 247 248 249 268 270 276 270 283 263 305 304 137 176 174 185 177
30 52 147 179 130 100 76 77 48 35 16 107 327 6 355 8 337 304 295 299 291 275 284 262 264 263 269 255 248 251 264 250 249 246 272 272 257 257 280 282 268 228 165 180 213
48 58 140 101 107 101 69 82 13 20 29 40 359 355 341 347 347 326 292 282 290 286 287 281 272 258 272 246 253 252 252 257 262 256 250 256 265 301 28 332 270 247 230 210 193
36 64 104 53 104 103 67 58 20 16 23 30 50 31 335 324 350 325 291 275 291 284 284 291 274 262 260 265 258 258 253 255 255 255 268 274 277 307 66 27 298 209 222 221 210
18 80 203 53 72 51 54 52 38 11 346 4 356 342 346 332 351 341 300 297 279 286 287 289 271 264 267 265 275 260 258 260 259 263 262 270 285 296 279 350 78 197 201 213 219
26 41 67 72 114 115 36 53 39 31 16 10 8 6 346 346 2 354 322 316 294 287 288 282 265 261 267 264 268 267 275 261 258 258 262 274 288 271 281 299 247 224 213 190 165
44 44 357 32 19 13 15 360 21 10 355 13 12 346 357 345 351 335 321 298 297 306 299 274 257 262 278 272 273 265 272 290 257 253 261 271 279 272 274 297 316 308 289 214 193
17 346 323 14 28 7 34 34 26 10 8 350 348 339 346 357 356 331 323 300 294 301 285 268 262 268 263 281 276 263 296 308 279 279 274 270 275 274 276 291 300 302 304 255 190
338 343 346 354 357 14 24 18 8 358 357 15 6 4 4 3 336 327 354 325 294 301 287 268 270 270 259 268 269 258 297 318 299 299 276 263 276 277 287 299 301 314 266 229 218